Location: Newark
(43.0000°N, 1.6781°W)
Time: 02:10:31
(UTC+00:00)

X-37B - Pass Details

Date: 10 December 2021
Orbit: 334 x 337 km, 45.0° (Epoch: 11 January)

Event Time Altitude Azimuth Distance (km) Brightness Sun altitude
Rises 18:12:05 0° 264° (W) 2,101 6.0 -17.6°
Reaches altitude 10° 18:14:05 10° 267° (W) 1,265 4.4 -18.0°
Enters shadow 18:16:46 63° 330° (NNW) 378 0.5 -18.4°
